Regional Weather Roundup
Issued by NWS

Home | Current Version | Previous Version | Graphics & Text | Print | Product List | Glossary On
Versions: 1 2 3 4 5 6 7 8 9 10 11 12 13 14 15 16 17 18 19 20 21 22 23 24 25 26 27 28 29 30 31 32 33 34 35 36 37 38 39 40 41 42 43 44 45 46 47 48 49 50
000
ASUS45 KTFX 200304
RWRMT
MONTANA HOURLY WEATHER ROUNDUP
NATIONAL WEATHER SERVICE GREAT FALLS MT
804 PM MST FRI DEC 19 2014

NOTE: "FAIR" INDICATES FEW OR NO CLOUDS BELOW 12000 FEET WITH NO
SIGNIFICANT WEATHER AND/OR OBSTRUCTIONS TO VISIBILITY.

* THESE STATIONS ARE NOT UNDER NWS QUALITY CONTROL. THEY DO NOT
   REPORT WEATHER SUCH AS PRECIPITATION OR FOG.

MTZ001>007-043-200400-
WEST OF THE DIVIDE
CITY           SKY/WX    TMP DP  RH WIND       PRES   REMARKS
KALISPELL      CLOUDY    36  34  92 S7        29.90S WCI  30
MISSOULA       FOG       30  30 100 CALM      29.98R VSB 1 1/4
BUTTE          LGT SNOW  30  27  89 E6        29.92S WCI  24
MULLAN PASS    LGT SNOW  28  25  89 VRB3      29.89R VSB 3/4
* ESSEX        N/A       32  31  96 NE1        N/A
* LINCOLN      N/A       33  31  92 W3G9       N/A
* LOOKOUT PASS N/A       31  31 100 NE1        N/A
* POLSON       N/A       32  32 100 N/A        N/A
* RONAN APT    CLOUDY    34  34 100 N/A        N/A
* SEELEY LAKE  N/A       29  28  96 SE2G8      N/A
* THOMP F APT  MOCLDY    28  27  96 S7G13      N/A   WCI  21
$$

MTZ008-052>055-200400-
SOUTHWEST MONTANA
CITY           SKY/WX    TMP DP  RH WIND       PRES   REMARKS
BOZEMAN        CLOUDY    36  30  79 NE6       29.94R WCI  31
DILLON         MOCLDY    32  25  75 SW10      29.94S WCI  24
* W YELLOWSTON CLOUDY    28  26  92 SW6G12     N/A   WCI  21
* THREE FORKS  MOCLDY    37  37 100 SW9        N/A   WCI  30
* BOULDER HILL N/A       31  26  82 S8         N/A   WCI  24
* MONIDA PASS  N/A       27  27 100 SE14       N/A   WCI  16
* RAYNOLDS PAS N/A       27  10  49 S8         N/A   WCI  19
* WHITEHALL    N/A       38  27  65 SW15G25    N/A   WCI  29
* WISE RIVER   N/A       30  29  96 SW1G6      N/A
$$

MTZ009>010-012-014-046-048-049-054-200400-
EAST SLOPES AND CENTRAL MONTANA
CITY           SKY/WX    TMP DP  RH WIND       PRES   REMARKS
CUT BANK       CLOUDY    37  28  70 W17       29.77S WCI  27
GREAT FALLS    CLOUDY    41  30  65 SW17      29.80S
HELENA         MOCLDY    32  28  85 CALM      29.89R
* EAST GLACIER N/A       33  26  75 W6G12      N/A   WCI  27
* MONARCH      N/A       37  20  50 SW17       N/A   WCI  27
* PENDROY      N/A       36  27  70 NW7        N/A   WCI  30
* SWEET GRASS  N/A       38  31  76 SW20       N/A   WCI  28
$$

MTZ011-013-016-021-035-040-045-047-050-051-200400-
NORTH CENTRAL MONTANA
CITY           SKY/WX    TMP DP  RH WIND       PRES   REMARKS
HAVRE          MOCLDY    27  25  92 NW3       29.78S
LEWISTOWN      CLOUDY    39  30  70 SW15      29.83R WCI  31
* N BAR RANCH  CLOUDY    30  23  75 CALM      29.83S
* CHESTER      N/A       30  27  89 N/A        N/A
* DENTON       N/A       37  28  70 S4G9       N/A
* JUDITH GAP   N/A       38  26  62 SW15       N/A   WCI  29
* LOMA         N/A       40  31  70 SW8        N/A   WCI  35
$$

MTZ017>020-022>027-061-062-200400-
NORTHEAST MONTANA
CITY           SKY/WX    TMP DP  RH WIND       PRES   REMARKS
GLASGOW        PTCLDY    28  25  89 E12       29.83F WCI  18
GLENDIVE       CLEAR     30  25  82 CALM      29.89S
JORDAN         PTCLDY    23  21  92 CALM      29.85R
SIDNEY         CLEAR     21  19  92 N5        29.91S WCI  14
WOLF POINT     CLEAR     25  21  85 NE5       29.88R WCI  19
* BEAVER HILL  N/A       31  23  72 S9         N/A   WCI  23
* CIRCLE       N/A       32  26  79 N/A        N/A
* LINDSAY DVD  N/A       31  25  78 S6         N/A   WCI  25
* NAVAJO       N/A       23  22  96 SW3        N/A
* SACO         N/A       23  21  92 VRB2       N/A
$$

MTZ028>042-056>058-200400-
SOUTHCENTRAL AND SOUTHEAST MONTANA
CITY           SKY/WX    TMP DP  RH WIND       PRES   REMARKS
BAKER          CLEAR     25  21  85 SE3       29.89S
BILLINGS       MOCLDY    36  19  50 SW13      29.87S WCI  27
LIVINGSTON     CLOUDY    41  27  58 W20G35    29.88S
MILES CITY     PTCLDY    30  23  75 SE7       29.87S WCI  23
* LAUREL APT   MOCLDY    36  14  40 SW7        N/A   WCI  30
* ROUNDUP APT  PTCLDY    36  18  48 S6         N/A   WCI  31
* ALZADA       N/A       29  22  75 E2         N/A
* HYSHAM       N/A       36  18  48 W6         N/A   WCI  31
* LAME DEER    N/A       35  18  50 SW6        N/A   WCI  30
* REED POINT   N/A       30  23  75 SW1        N/A
* ROSCOE HILL  N/A       38  12  34 E1G9       N/A
$$

REGIONAL REPORTS...DAKOTAS
CITY           SKY/WX    TMP DP  RH WIND       PRES   REMARKS
WILLISTON      FOG       19  18  96 NE3       29.91F VSB 1/2
DICKINSON      CLEAR     21  18  88 S6        29.88S WCI  13
BEACH          CLEAR     25  23  92 S5        29.89F WCI  19
CROSBY         FOG       23  23 100 SW3       29.93S VSB 1/2
WATFORD CITY   CLEAR     18  16  92 N5        29.89S WCI  11
BISMARCK       CLEAR     21  19  92 NE6       29.95S WCI  13
GRAND FORKS    FOG       28  28 100 S6        30.00S WCI  21
FARGO          FOG       32  28  85 S12       30.01F WCI  23
BUFFALO SD     PTCLDY    27  19  72 S6        29.84S WCI  20
RAPID CITY     PTCLDY    23  19  85 CALM      29.92F
$$

REGIONAL REPORTS...WYOMING/IDAHO/WASHINGTON
CITY           SKY/WX    TMP DP  RH WIND       PRES   REMARKS
GILLETTE       CLOUDY    32  21  64 SW8       29.89S WCI  25
SHERIDAN       MOCLDY    25  18  75 N5        29.86S WCI  19
CODY           MOCLDY    37  23  57 N7        29.89S WCI  32
YELLOWSTONE LA MOCLDY    25  21  85 CALM      30.02R
SALMON         PTCLDY    30  27  89 SE3       29.99S
MULLAN PASS    LGT SNOW  28  25  89 VRB3      29.89S VSB 3/4
SAND POINT     N/A       37  37 100 SW7       29.96R WCI  32
SPOKANE        CLOUDY    39  36  89 SW15      29.97R WCI  31

$$




USA.gov is the U.S. government's official web portal to all federal, state and local government web resources and services.